Regional Weather Roundup
Issued by NWS

Home | Current Version | Previous Version | Graphics & Text | Print | Product List | Glossary On
Versions: 1 2 3 4 5 6 7 8 9 10 11 12 13 14 15 16 17 18 19 20 21 22 23 24 25 26 27 28 29 30 31 32 33 34 35 36 37 38 39 40 41 42 43 44 45 46 47 48 49 50
000
ASUS43 KDMX 290507
RWRIA

WEATHER ROUNDUP FOR IOWA
NATIONAL WEATHER SERVICE DES MOINES IA
1200 AM CDT SUN MAR 29 2015

NOTE: "FAIR" INDICATES FEW OR NO CLOUDS BELOW 12,000 FEET WITH NO
SIGNIFICANT WEATHER AND/OR OBSTRUCTIONS TO VISIBILITY.

* - THESE STATIONS ARE NOT NWS STATIONS...THUS NOT UNDER NWS
QUALITY CONTROL.  THEY ALSO DO NOT REPORT WEATHER SUCH
AS PRECIPITATION OR FOG.

IAZ001>003-012>014-020>022-031>034-043>046-290600-
   NORTHWEST IOWA

CITY           SKY/WX    TMP DP  RH WIND       PRES   REMARKS
CARROLL *      PTCLDY    37  28  70 S17       29.97F WCI  28
CHEROKEE *     CLEAR     37  30  75 S16G22    29.88F WCI  28
DENISON *      CLEAR     39  30  70 S18G28    29.92F WCI  30
LE MARS *      CLEAR     43  32  65 S20G25    29.83F
ORANGE CITY *  CLEAR     41  30  65 S16G24    29.83F
SHELDON *      PTCLDY    37  30  75 S22G28    29.84F WCI  27
SIOUX CITY     CLEAR     43  31  62 SE16      29.86F
SPENCER        CLEAR     38  28  67 S23G30    29.88F WCI  27
STORM LAKE *   CLEAR     36  28  75 S23G30    29.90F WCI  24
$$

IAZ055>058-069>071-079>083-090>094-290600-
   SOUTHWEST IOWA

CITY           SKY/WX    TMP DP  RH WIND       PRES   REMARKS
ATLANTIC *     PTCLDY    39  30  70 S14G21    30.00F WCI  31
AUDUBON *      CLEAR     37  28  70 S13G18    29.99F WCI  29
CLARINDA *     CLEAR     41  32  70 S13       30.05S
COUNCIL BLFS * PTCLDY    41  32  70 S23G30    29.95F
CRESTON *      CLEAR     36  30  80 S14       30.04F WCI  27
HARLAN  *      CLEAR     39  32  75 S16       30.00F WCI  30
LAMONI         CLEAR     38  27  64 SE13      30.07F WCI  30
RED OAK *      CLEAR     41  32  70 S14G21    30.01F
SHENANDOAH *   CLEAR     41  32  70 SE16G22   30.01F
$$

IAZ047>049-059>061-072>074-084-290600-
   CENTRAL IOWA

CITY           SKY/WX    TMP DP  RH WIND       PRES   REMARKS
AMES           CLEAR     36  22  56 S15       30.05F WCI  27
ANKENY *       CLEAR     37  23  56 S13G20    30.06F WCI  29
CHARITON *     MOCLDY    36  25  64 S15G21    30.08F WCI  26
DES MOINES     CLEAR     38  23  55 S15       30.06F WCI  29
GRINNELL*      CLEAR     32  19  59 SE15      30.10F WCI  22
KNOXVILLE *    CLEAR     36  21  55 SE12G17   30.08F WCI  27
MARSHALLTOWN   CLEAR     33  19  56 SE16      30.07F WCI  23
PELLA *        CLEAR     36  24  61 SE15G22   30.11F WCI  27
PERRY *          N/A     36  27  69 S15       30.02F WCI  26
$$

IAZ004>006-015-016-023>025-035-036-290600-
   NORTH CENTRAL IOWA

CITY           SKY/WX    TMP DP  RH WIND       PRES   REMARKS
ALGONA *       CLEAR     36  25  64 S22       29.94F WCI  24
CLARION *      CLEAR     36  25  64 S21       30.00F WCI  24
ESTHERVILLE    CLEAR     37  26  64 S29G37    29.89F WCI  25
FORT DODGE *   CLEAR     39  23  52 S16G23    29.99F WCI  30
MASON CITY     PTCLDY    33  21  61 S20       30.01F WCI  21
FOREST CITY *  CLEAR     32  25  74 SE16G23   29.98F WCI  21
IOWA FALLS *     N/A     34  21  60 SE17G23   30.04F WCI  23
$$

IAZ007>011-017>019-026>030-037>042-050>054-066-290600-
   NORTHEAST IOWA

CITY           SKY/WX    TMP DP  RH WIND       PRES   REMARKS
CEDAR RAPIDS   PTCLDY    32  17  54 S12       30.14F WCI  23
CHARLES CITY * PTCLDY    34  18  51 S17       30.05F WCI  23
CLINTON *      CLEAR     28  16  59 S9        30.24F WCI  20
DECORAH *      PTCLDY    32  18  55 S13G18    30.07F WCI  22
DUBUQUE        CLEAR     27  16  63 S13       30.16F WCI  16
MONTICELLO *   CLEAR     30  19  64 SE10      30.16F WCI  21
OELWEIN *      CLOUDY    34  18  51 S15       30.10F WCI  24
WATERLOO       CLEAR     34  17  50 S18G25    30.09F WCI  23
$$

IAZ064-065-067-068-078-290600-
   EAST CENTRAL IOWA

CITY           SKY/WX    TMP DP  RH WIND       PRES   REMARKS
DAVENPORT      CLEAR     32  15  49 S13       30.22F WCI  22
IOWA CITY      CLEAR     31  18  58 SE9       30.19F WCI  23
MT. PLEASANT * CLEAR     30  19  64 SE9       30.20S WCI  22
MUSCATINE *    CLEAR     32  18  55 SE7       30.22S WCI  26
QUAD CITIES    CLEAR     30  16  56 S10       30.22F WCI  21
$$

IAZ062-063-075>077-085>089-095>099-290600-
   SOUTHEAST IOWA

CITY           SKY/WX    TMP DP  RH WIND       PRES   REMARKS
BURLINGTON     CLEAR     33  19  56 S12       30.21F WCI  24
FAIRFIELD *    CLEAR     34  18  51 SE15      30.17F WCI  24
FORT MADISON * CLEAR     34  19  55 SE8       30.22S WCI  27
KEOKUK *       CLEAR     34  21  60 SE12      30.21R WCI  25
OSKALOOSA *      N/A     28  21  74 SE12      30.13F WCI  18
CENTERVILLE *  CLEAR     34  23  64 SE13      30.12F WCI  25
OTTUMWA        CLEAR     34  19  54 SE16      30.13F WCI  24
WASHINGTON *   CLEAR     32  19  59 S14       30.17F WCI  22
$$

ABBREVIATIONS USED IN REMARKS
   TC - TEMPERATURES IN CELSIUS
  WCI - WIND CHILL INDEX
   HX - HEAT INDEX
  VSB - VISIBILITY
$$



USA.gov is the U.S. government's official web portal to all federal, state and local government web resources and services.